Weather History for Chamberlain, SD

Change the Weather History Date:

Friday, September 13, 2013

  Actual Average Record
Temperature  
Mean Temperature 65 °F -  
Max Temperature 82 °F 77 °F 93 °F (2000)
Min Temperature 48 °F 51 °F 42 °F (1999)
Growing Degree Days 15 (Base 50)    
Moisture  
Dew Point 47 °F    
Average Humidity 56    
Maximum Humidity 86    
Minimum Humidity 25    
Precipitation  
Precipitation 0.01 in - - ()
Sea Level Pressure  
Sea Level Pressure 30.11 in    
Wind  
Wind Speed 8 mph (South)    
Max Wind Speed 14 mph    
Max Gust Speed 24 mph    
Averages and records for this station are not official NWS values.
T = Trace of Precipitation, MM = Missing Value Source: NWS Daily Summary

Daily Weather History Graph

Daily Weather History Graph

Search for Another Location

Airport:

Trip Planner

Search our weather history database for the weather conditions in past years. The results will help you decide how hot, cold, wet, or windy it might be!

Date:

Astronomy

Sep. 13, 2013 Rise Set
Actual Time 7:14 AM CDT 7:50 PM CDT
Civil Twilight 6:45 AM CDT 8:19 PM CDT
Nautical Twilight 6:11 AM CDT 8:53 PM CDT
Astronomical Twilight 5:35 AM CDT 9:29 PM CDT
Moon 3:50 PM CDT (9/13) 12:37 AM CDT (9/13)
Length of Visible Light 13h 33m
Length of Day
12h 36m
First Quarter, 61% of the Moon is Illuminated
Sep 13
First Quarter
Sep 19
Full
Sep 26
Last Quarter
Oct 4
New
Oct 11
First Quarter

Hourly Weather History & Observations

Time (CDT) Temp. Dew Point Humidity Pressure Visibility Wind Dir Wind Speed Gust Speed Precip Events Conditions
12:52 AM 55.9 °F 45.0 °F 67% 30.22 in - South 5.8 mph - N/A   Unknown
1:52 AM 55.0 °F 46.0 °F 72% 30.22 in - SSE 5.8 mph - N/A   Unknown
2:52 AM 53.1 °F 46.9 °F 80% 30.21 in - SSE 6.9 mph - N/A   Unknown
3:52 AM 52.0 °F 45.0 °F 77% 30.20 in - SSE 9.2 mph - N/A   Unknown
4:52 AM 51.1 °F 45.0 °F 80% 30.20 in - South 6.9 mph - N/A   Unknown
5:52 AM 50.0 °F 46.0 °F 86% 30.20 in - South 6.9 mph - N/A   Unknown
6:52 AM 48.9 °F 45.0 °F 86% 30.19 in - SSE 5.8 mph - N/A   Unknown
7:52 AM 48.9 °F 45.0 °F 86% 30.21 in - SSE 6.9 mph - N/A   Unknown
8:52 AM 57.0 °F 50.0 °F 77% 30.20 in - South 8.1 mph - N/A   Unknown
9:52 AM 64.0 °F 51.1 °F 63% 30.19 in - SW 8.1 mph - N/A   Unknown
10:52 AM 71.1 °F 48.9 °F 45% 30.18 in - SW 8.1 mph - N/A   Unknown
11:52 AM 75.0 °F 46.9 °F 37% 30.15 in - SW 8.1 mph - N/A   Unknown
12:52 PM 77.0 °F 43.0 °F 30% 30.12 in - WSW 12.7 mph 23.0 mph 0.01 in   Unknown
1:52 PM 80.1 °F 44.1 °F 28% 30.09 in - South 11.5 mph 19.6 mph N/A   Unknown
2:52 PM 79.0 °F 43.0 °F 28% 30.07 in - SW 10.4 mph 18.4 mph N/A   Unknown
3:52 PM 82.0 °F 44.1 °F 26% 30.04 in - SW 11.5 mph 19.6 mph N/A   Unknown
4:52 PM 81.0 °F 42.1 °F 25% 30.03 in - SW 12.7 mph 24.2 mph N/A   Unknown
5:52 PM 77.0 °F 45.0 °F 32% 30.02 in - SSW 13.8 mph - N/A   Unknown
6:52 PM 73.9 °F 46.9 °F 38% 30.01 in - South 11.5 mph - N/A   Unknown
7:52 PM 70.0 °F 48.9 °F 47% 29.99 in - South 10.4 mph - N/A   Unknown
8:52 PM 66.9 °F 48.9 °F 52% 29.99 in - SSW 11.5 mph - N/A   Unknown
9:52 PM 64.9 °F 50.0 °F 58% 29.98 in - South 9.2 mph - N/A   Unknown
10:52 PM 63.0 °F 50.0 °F 63% 29.98 in - SSW 8.1 mph - N/A   Unknown
11:52 PM 62.1 °F 51.1 °F 67% 29.97 in - South 8.1 mph - N/A   Unknown